Location: *
(48.4333°N, 5.0333°W)
Time: 02:23:17
(UTC+00:00)

SJ-6B - Pass Details

Date: 19 June 2021
Orbit: 509 x 581 km, 97.6° (Epoch: 02 August)

Event Time Altitude Azimuth Distance (km) Brightness Sun altitude
Rises 21:30:11 0° 219° (SW) 2,781 6.3 -8.5°
Reaches altitude 10° 21:33:56 10° 255° (WSW) 1,878 5.9 -8.9°
Maximum altitude 21:35:09 11° 272° (W) 1,802 6.0 -9.1°
Drops below altitude 10° 21:36:23 10° 290° (WNW) 1,873 6.5 -9.2°
Sets 21:40:06 0° 326° (NW) 2,760 8.8 -9.6°
